Sigfox identifier Datetime Temperature Humidity SNR
003C0469 2018-10-09 07:25:21 20.4 38 15.3
003C0469 2018-10-09 06:22:05 20.4 38 15.9
003C0469 2018-10-09 05:18:51 20.4 38 15.9
003C0469 2018-10-09 01:05:44 20.4 38 15.9
003C0469 2018-10-09 00:02:27 20.4 38 16
003C0469 2018-10-08 22:59:10 20.4 38 16.2
003C0469 2018-10-08 21:55:53 20.4 38 16.2
003C0469 2018-10-08 18:45:57 20.3 37 16.9
003C0469 2018-10-08 17:42:31 20.3 37 17.5
003C0469 2018-10-08 16:39:10 20.3 37 17.5
003C0469 2018-10-08 15:35:49 20.4 37 17.2
003C0469 2018-10-08 14:32:31 20.4 37 17
003C0469 2018-10-08 13:29:15 20.5 37 17.3
003C0469 2018-10-08 11:22:37 20.6 37 17.1
003C0469 2018-10-08 10:19:21 20.6 37 17.1
003C0469 2018-10-08 09:16:03 20.6 36 16.9
003C0469 2018-10-08 08:12:49 20.6 37 17.2
003C0469 2018-10-08 07:09:29 20.6 37 17.4
003C0469 2018-10-08 06:06:07 20.6 37 17.4
003C0469 2018-10-08 05:02:48 20.6 37 17.6
003C0469 2018-10-08 03:59:32 20.6 37 18
003C0469 2018-10-08 02:56:13 20.6 38 17.9
003C0469 2018-10-08 01:52:55 20.7 38 17.9
003C0469 2018-10-08 00:49:37 20.7 38 17.9
003C0469 2018-10-07 23:46:20 20.7 38 17.6
003C0469 2018-10-07 22:43:03 20.7 39 18.1
003C0469 2018-10-07 21:39:46 20.8 39 18.5
003C0469 2018-10-07 20:36:28 20.7 39 19
003C0469 2018-10-07 19:33:13 20.8 39 19
003C0469 2018-10-07 18:29:57 20.8 39 19.1
003C0469 2018-10-07 17:26:43 20.8 39 19.3
003C0469 2018-10-07 16:23:24 20.8 39 19.2
003C0469 2018-10-07 15:20:08 20.8 39 19.1
003C0469 2018-10-07 14:16:51 20.8 39 18.8
003C0469 2018-10-07 13:13:32 20.8 39 18.9
003C0469 2018-10-07 12:10:13 20.8 39 19.2
003C0469 2018-10-07 11:06:52 20.8 39 19.6
003C0469 2018-10-07 10:03:35 20.8 39 19.4
003C0469 2018-10-07 09:00:14 20.8 39 19.4
003C0469 2018-10-07 07:56:55 20.8 39 19.4
003C0469 2018-10-07 06:53:40 20.9 39 19.8
003C0469 2018-10-07 05:50:23 20.9 40 19.5
003C0469 2018-10-07 04:47:06 21 40 19.4
003C0469 2018-10-07 03:43:50 21 40 19.3
003C0469 2018-10-07 02:40:35 21 40 19.5
003C0469 2018-10-07 01:37:19 21 40 19.3
003C0469 2018-10-07 00:34:04 21 40 19.6
003C0469 2018-10-06 23:30:45 21 40 19.6
003C0469 2018-10-06 22:27:25 21 40 19.8
003C0469 2018-10-06 21:24:08 21 40 20
003C0469 2018-10-06 20:20:51 21 40 19.7
003C0469 2018-10-06 19:17:34 21 40 19.6
003C0469 2018-10-06 18:14:13 21 40 19.5
003C0469 2018-10-06 17:10:50 21 40 19.5
003C0469 2018-10-06 16:07:29 21 40 19.3
003C0469 2018-10-06 15:04:10 21 40 19
003C0469 2018-10-06 14:00:51 21.1 40 19.1
003C0469 2018-10-06 12:57:30 21.1 40 18.9
003C0469 2018-10-06 11:54:09 21.2 40 18.8
003C0469 2018-10-06 10:50:51 21.2 40 18.8
003C0469 2018-10-06 09:47:34 21.2 40 18.7
003C0469 2018-10-06 08:44:15 21.2 41 18.3
003C0469 2018-10-06 07:40:55 21.2 41 18.2
003C0469 2018-10-06 06:37:34 21.3 41 18.2
003C0469 2018-10-06 05:34:15 21.3 41 18.1
003C0469 2018-10-06 04:30:56 21.3 41 17.5
003C0469 2018-10-06 03:27:37 21.3 41 17.6
003C0469 2018-10-06 02:24:19 21.3 41 17.6
003C0469 2018-10-06 01:21:00 21.3 41 17.5
003C0469 2018-10-06 00:17:41 21.4 41 17.2
003C0469 2018-10-05 23:14:21 21.3 41 17.1
003C0469 2018-10-05 22:11:02 21.3 42 16.6
003C0469 2018-10-05 21:07:47 21.4 42 16.2
003C0469 2018-10-05 20:04:32 21.4 42 15.7
003C0469 2018-10-05 19:01:12 21.3 42 15
003C0469 2018-10-05 17:57:52 21.3 42 15
003C0469 2018-10-05 16:54:32 21.3 42 14.7
003C0469 2018-10-05 15:51:14 21.2 42 14.1
003C0469 2018-10-05 14:47:55 21 41 14.1
003C0469 2018-10-05 13:44:36 20.8 38 14.1
003C0469 2018-10-05 12:41:19 20.8 37 14
003C0469 2018-10-05 10:34:34 20.6 34 14.2
003C0469 2018-10-05 09:31:19 20.6 34 15.2
003C0469 2018-10-05 08:28:00 20.6 33 16.1
003C0469 2018-10-05 07:24:43 20.6 33 15.8
003C0469 2018-10-05 06:21:20 20.6 33 16.1
003C0469 2018-10-05 05:18:04 20.6 33 17
003C0469 2018-10-05 04:14:43 20.6 34 17
003C0469 2018-10-05 03:11:28 20.6 34 17
003C0469 2018-10-05 02:08:12 20.6 34 17.1
003C0469 2018-10-05 01:04:57 20.6 34 17.4
003C0469 2018-10-05 00:01:37 20.6 34 17.6
003C0469 2018-10-04 22:58:17 20.6 34 18.1
003C0469 2018-10-04 21:54:58 20.6 34 18
003C0469 2018-10-04 20:51:41 20.6 33 18
003C0469 2018-10-04 19:48:17 20.6 33 18
003C0469 2018-10-04 18:45:01 20.6 33 20.1
003C0469 2018-10-04 17:41:43 20.5 33 20.2
003C0469 2018-10-04 16:38:21 20.4 32 20.4
003C0469 2018-10-04 15:35:06 20.4 32 20.6
003C0469 2018-10-04 14:31:45 20.4 33 20.8
003C0469 2018-10-04 13:28:28 20.4 33 20.9
003C0469 2018-10-04 12:25:04 20.4 33 21
003C0469 2018-10-04 11:21:45 20.4 34 21.2
003C0469 2018-10-04 10:18:26 20.4 35 21.4
003C0469 2018-10-04 09:15:08 20.4 35 21.7
003C0469 2018-10-04 08:11:46 20.4 36 21.9
003C0469 2018-10-04 07:08:25 20.4 37 21.7
003C0469 2018-10-04 06:05:02 20.4 37 21.6
003C0469 2018-10-04 05:01:40 20.4 38 21.9
003C0469 2018-10-04 03:58:16 20.4 38 21.9
003C0469 2018-10-04 02:54:54 20.4 39 21.7
003C0469 2018-10-04 01:51:34 20.5 39 22.1
003C0469 2018-10-04 00:48:16 20.6 40 22.6
003C0469 2018-10-03 23:44:53 20.6 40 23.1
003C0469 2018-10-03 22:41:30 20.6 41 23.4
003C0469 2018-10-03 21:38:06 20.6 41 23.9
003C0469 2018-10-03 20:34:42 20.8 41 24.2
003C0469 2018-10-03 19:31:20 20.8 41 25.5
003C0469 2018-10-03 18:27:58 21 42 27
003C0469 2018-10-03 17:24:35 21.3 42 30
003C0469 2018-10-03 16:21:07 21 50 0